SCP
0 0 0 0 -0 -0 -0 -0 -0 -0 -0 -0 -0 -0 -0 -0 -0 0 -0 -0 -0 -0 -0 -0 -0 -0 -0 0 0 0 0 0 -0 -0 0 0 0 0 0 0 -0 0 -0 -0 -0
0 0 0 0 0 0 -0 -0 -0 -0 -0 -0 -0 -0 -0 -0 -0 0 -0 -0 0 -0 -0 -0 -0 0 0 0 0 0 -0 -0 0 -0 0 0 0 0 0 0 0 0 -0 -0 -0
0 0 0 0 0 0 0 0 -0 -0 -0 -0 -0 -0 -0 -0 -0 0 -0 -0 0 0 -0 -0 -0 -0 0 0 0 -0 -0 -0 -0 0 -0 0 0 0 0 0 0 0 -0 -0 -0
0 0 0 0 0 0 0 0 0 -0 -0 -0 -0 -0 -0 -0 -0 -0 -0 0 0 0 -0 -0 -0 -0 -0 -0 0 0 -0 0 -0 0 0 0 0 0 0 0 0 -0 -0 -0 -0
0 0 0 0 0 0 0 0 0 0 0 0 -0 -0 -0 -0 -0 -0 0 0 0 0 0 -0 -0 -0 -0 -0 -0 -0 -0 -0 0 0 -0 0 0 0 0 0 0 -0 -0 -0 -0
0 0 0 0 0 0 0 0 0 0 0 0 0 0 0 -0 0 0 0 0 0 0 0 -0 -0 0 0 -0 0 0 -0 -0 -0 0 0 0 -0 0 -0 -0 -0 -0 -0 -0 -0
0 0 0 0 0 0 0 0 0 0 0 0 0 0 0 0 0 0 0 0 0 0 0 0 0 0 0 -0 0 -0 0 -0 -0 -0 0 -0 -0 0 -0 -0 -0 -0 -0 -0 -0
0 0 0 0 0 0 0 0 0 0 0 0 0 0 0 0 0 0 0 0 0 0 0 0 0 -0 -0 0 -0 -0 -0 0 -0 0 0 -0 -0 -0 -0 -0 -0 -0 -0 -0 -0
0 0 0 0 0 0 0 0 0 0 0 0 0 0 0 0 0 0 0 0 0 0 0 0 0 0 -0 0 -0 -0 0 -0 -0 -0 0 0 0 -0 -0 -0 -0 -0 0 -0 -0
-0 0 0 0 0 0 0 0 0 0 0 0 0 0 0 0 0 0 0 0 0 -0 0 0 0 0 0 -0 -0 0 0 -0 0 -0 -0 0 0 -0 -0 -0 -0 -0 -0 -0 -0
-0 -0 -0 -0 0 0 0 0 0 0 0 0 0 0 0 0 0 0 0 0 -0 0 -0 -0 0 0 -0 -0 -0 0 0 -0 -0 0 -0 -0 0 -0 -0 -0 -0 -0 -0 -0 -0
0 -0 -0 -0 -0 0 0 0 0 0 0 0 0 0 0 0 0 0 0 0 0 0 -0 -0 -0 0 0 0 -0 0 -0 0 0 0 -0 0 -0 -0 -0 -0 -0 -0 -0 -0 -0
0 0 -0 -0 -0 0 -0 0 0 0 0 0 0 0 0 0 0 0 0 -0 0 -0 -0 0 -0 0 0 -0 -0 -0 0 -0 0 0 -0 -0 -0 0 0 0 0 0 -0 0 -0
-0 0 -0 -0 0 0 -0 0 0 0 0 0 0 0 0 0 0 0 0 0 0 0 -0 0 0 0 0 -0 0 0 -0 0 0 0 -0 0 -0 0 -0 0 0 0 0 0 0
-0 0 -0 0 0 0 0 0 0 0 0 0 0 0 0 -0 0 0 -0 0 0 0 0 0 0 0 -0 0 -0 -0 -0 0 0 -0 -0 -0 -0 -0 0 0 -0 0 0 -0 -0
-0 -0 0 -0 0 0 0 0 0 0 0 0 0 0 0 -0 -0 0 0 0 0 0 0 -0 0 0 0 -0 -0 0 0 0 0 -0 0 0 -0 0 0 -0 0 0 0 0 -0
-0 -0 0 0 0 0 0 0 0 0 0 0 0 0 0 0 0 0 0 0 0 0 0 0 0 0 0 0 0 -0 -0 0 -0 -0 0 -0 0 0 0 0 0 0 0 0 -0
-0 -0 0 -0 0 0 0 0 0 0 0 0 -0 -0 -0 0 0 0 0 0 -0 -0 0 0 0 0 0 0 0 0 -0 -0 0 0 -0 0 0 0 0 0 0 0 0 0 -0
-0 0 -0 0 -0 0 0 -0 -0 0 0 -0 -0 -0 -0 0 0 0 -0 -0 0 0 0 0 -0 0 0 -0 0 -0 -0 -0 -0 -0 0 0 -0 0 -0 0 0 0 0 0 0
0 0 0 0 0 0 0 0 0 0 0 0 0 -0 -0 0 0 0 0 0 0 0 0 0 0 0 0 0 0 0 0 -0 0 0 0 0 0 0 0 0 0 -0 0 -0 0
0 0 0 0 0 0 0 0 0 0 0 0 0 0 0 -0 -0 -0 -0 0 0 -0 0 -0 -0 0 0 0 0 0 0 0 -0 0 0 -0 0 0 0 0 0 0 0 0 0
0 0 0 0 0 0 0 0 0 0 0 0 0 0 -0 -0 0 0 0 0 0 -0 0 -0 0 0 -0 -0 -0 0 0 0 0 -0 0 0 -0 -0 0 0 0 0 0 0 0
0 0 0 0 0 0 0 0 0 0 -0 -0 0 0 0 0 0 0 0 0 0 -0 0 0 0 -0 -0 0 0 0 0 -0 -0 -0 0 -0 0 0 0 0 0 0 0 0 0
0 0 0 0 0 0 0 0 0 0 0 0 0 0 0 0 0 0 0 0 -0 0 0 0 -0 -0 0 -0 -0 -0 0 0 -0 0 -0 0 -0 0 0 0 0 0 0 0 0
0 0 0 0 0 0 0 0 0 0 0 0 0 0 -0 0 0 -0 -0 0 0 0 0 0 -0 -0 0 0 0 0 0 0 0 0 0 0 -0 0 0 0 0 0 0 0 1
0 0 0 0 0 0 0 0 0 0 0 0 0 0 0 0 0 -0 -0 0 -0 0 0 0 0 0 0 0 0 -0 -0 0 0 0 0 -0 -0 0 0 0 0 0 0 1 1
0 0 0 0 0 0 0 0 0 0 0 0 0 0 0 0 0 0 0 0 0 0 0 0 0 -0 -0 0 0 -0 0 0 0 0 -0 0 0 0 0 0 0 0 0 1 1
Wind_Speed_500mb
24 24 23 23 22 23 23 23 22 22 23 22 20 22 21 21 17 18 16 16 17 8 9 5 11 12 11 10 9 15 5 20 29 29 22 15 20 23 25 22 13 6 35 46 51
25 24 24 23 24 23 23 24 22 21 22 23 20 20 21 21 18 25 31 29 20 13 7 11 14 11 24 2 9 12 18 26 21 29 23 17 18 21 20 16 16 25 44 50 50
25 25 25 24 24 24 24 24 24 22 22 22 20 19 18 15 19 24 41 31 25 19 16 18 17 19 12 1 10 10 20 13 25 19 24 21 23 14 20 17 23 32 46 53 50
26 26 26 26 26 25 24 24 24 23 22 21 18 18 14 7 11 5 27 33 29 25 21 22 21 33 13 5 6 5 14 9 17 9 18 13 16 19 24 17 25 36 46 50 49
29 29 28 27 26 27 25 24 24 22 22 20 17 16 10 16 29 16 17 31 34 31 27 25 23 19 13 7 7 11 10 12 13 11 19 14 13 18 21 24 30 40 45 46 44
31 32 31 30 29 29 27 25 24 22 21 19 15 14 11 30 8 8 10 22 33 33 31 28 24 14 19 9 15 12 15 14 16 14 12 9 15 11 24 27 34 40 42 41 42
33 34 34 33 31 29 28 27 23 21 20 18 15 13 19 28 8 16 9 21 36 37 34 31 25 22 13 19 2 9 23 21 19 13 9 4 34 8 31 31 35 35 38 40 38
34 35 36 35 34 29 27 25 22 20 18 15 13 8 18 9 22 21 16 21 32 39 36 29 25 30 31 10 25 24 26 6 7 2 13 18 40 23 29 32 34 37 37 39 38
36 37 38 38 36 28 25 22 18 15 11 9 3 8 25 15 19 22 22 25 29 36 32 16 23 33 35 23 30 22 23 33 20 12 12 5 12 23 23 29 32 36 38 39 40
36 37 38 40 35 26 20 13 10 6 6 7 13 15 25 25 22 23 24 22 34 37 32 32 29 29 30 28 28 14 18 12 7 14 13 12 8 20 25 31 32 36 39 42 43
38 39 38 40 31 21 11 8 8 10 23 24 8 14 5 11 17 24 26 28 36 38 36 45 31 37 43 37 38 22 17 32 21 12 21 14 13 30 26 29 33 37 39 43 45
38 40 38 39 26 13 4 8 10 12 20 35 29 26 11 11 21 32 32 30 33 33 42 37 43 41 37 40 31 16 30 16 13 13 15 19 23 16 28 27 31 33 41 41 44
39 41 38 35 20 8 10 12 7 14 17 28 29 32 25 23 27 38 40 40 29 34 37 42 37 36 41 38 32 27 36 26 12 5 26 18 31 6 26 31 28 32 35 43 46
40 42 41 29 6 8 10 11 11 11 12 28 25 25 28 28 24 39 42 37 17 31 35 27 34 30 40 36 24 38 32 30 7 14 22 8 15 17 33 22 33 34 38 40 47
41 44 42 30 15 6 5 7 10 6 12 28 26 24 33 31 45 25 38 29 27 27 25 32 33 30 37 28 33 36 34 16 13 27 30 29 15 9 14 10 16 26 33 35 46
41 45 44 22 16 21 11 11 6 14 7 17 21 26 33 39 28 35 34 26 25 24 29 34 22 21 29 35 36 36 33 18 25 28 27 28 25 5 3 8 10 13 15 22 37
40 45 34 13 4 10 11 11 14 21 20 19 29 38 37 30 26 29 35 34 22 22 27 32 22 27 29 30 31 34 30 21 26 27 23 30 6 15 23 13 18 9 2 10 33
40 43 20 14 15 13 12 17 19 6 12 20 31 35 34 30 30 34 34 31 36 29 21 25 28 30 26 34 22 26 34 26 22 23 25 10 5 5 13 7 16 8 9 13 26
39 20 9 12 18 17 21 21 12 9 12 17 32 33 30 32 17 27 35 33 32 25 31 21 27 38 23 32 34 31 31 42 41 37 13 13 20 11 19 17 15 18 20 22 23
41 13 17 16 19 19 18 33 12 11 14 12 23 27 29 29 21 25 28 29 26 28 31 11 19 18 20 23 26 28 17 26 12 12 8 10 3 19 24 9 12 22 25 24 23
23 15 13 15 19 26 21 30 2 12 18 18 20 24 21 28 32 26 30 19 25 25 26 23 26 20 23 23 29 18 19 16 20 7 10 13 18 31 19 13 15 13 13 21 28
22 15 13 21 24 33 25 17 2 17 18 13 17 21 24 27 21 22 16 11 26 29 27 32 17 18 29 28 35 32 25 25 12 23 12 20 19 25 23 17 15 21 17 14 3
15 22 12 22 16 21 31 14 16 15 21 21 19 13 5 16 9 10 9 16 14 22 23 27 16 20 24 20 20 22 19 27 31 15 12 19 19 27 26 23 22 20 19 14 9
14 11 18 30 41 28 29 26 26 20 8 13 7 11 17 14 10 12 16 10 28 32 15 18 36 25 19 25 32 33 14 19 29 14 17 14 34 24 22 24 22 22 20 20 16
16 17 10 15 28 26 21 19 25 18 25 22 17 22 24 11 19 15 28 27 22 11 16 23 30 12 18 15 3 7 18 18 26 24 14 15 30 27 22 21 24 23 20 20 18
17 13 13 33 5 18 14 27 27 24 20 29 21 21 13 10 19 26 24 29 26 23 28 29 13 5 7 1 11 17 23 11 23 9 11 27 33 31 34 23 23 24 23 23 19
13 21 17 23 27 23 26 32 24 0 16 22 21 17 23 21 17 14 20 8 18 28 32 29 14 13 17 9 5 24 20 22 19 17 25 15 38 31 24 23 21 17 17 16 13
Wind_Direction_500mb
338 333 327 322 320 316 312 310 308 308 307 305 305 304 300 292 260 266 260 226 220 246 303 279 274 290 268 258 287 17 239 67 67 77 102 122 97 69 98 127 96 111 143 149 153
340 334 329 323 318 313 310 306 305 304 301 301 305 303 306 296 276 259 237 231 224 221 253 245 295 298 245 185 311 354 61 71 9 86 96 113 85 107 123 116 116 115 122 147 155
342 334 329 323 317 311 307 304 301 300 298 297 302 303 307 312 297 237 229 227 215 216 223 270 288 281 264 19 357 57 74 58 76 30 91 103 111 121 166 129 136 142 147 155 160
343 337 330 322 317 311 305 300 298 297 296 295 298 298 302 283 233 195 217 218 208 214 235 256 259 256 299 96 91 186 92 28 93 98 110 94 119 116 60 58 123 148 156 160 164
345 341 333 325 317 309 303 297 294 293 293 291 295 297 298 245 253 276 223 204 201 204 220 238 261 276 286 341 242 301 93 122 112 143 119 136 125 104 98 109 128 148 159 164 170
346 342 337 330 319 308 301 293 290 291 287 284 285 286 274 252 227 233 214 211 199 203 222 232 251 318 307 307 314 3 264 122 179 118 141 160 125 179 125 132 140 154 163 169 172
346 342 337 331 322 312 304 293 290 286 281 277 274 279 264 235 240 226 225 214 205 211 223 230 249 255 284 243 23 265 243 177 170 161 143 290 351 156 141 143 149 163 169 172 175
344 342 337 331 324 316 304 295 292 288 281 267 261 267 258 232 226 226 213 209 203 210 221 239 233 258 271 305 241 252 260 343 111 104 116 270 159 120 149 157 163 171 177 177 177
341 340 338 332 326 320 308 302 296 293 276 241 269 223 253 252 222 206 205 205 201 197 209 230 230 237 239 254 247 206 91 266 133 63 339 269 69 121 163 176 174 180 181 182 182
337 339 338 333 327 321 315 312 306 281 228 211 240 239 240 224 186 192 196 205 191 193 206 217 225 233 240 222 249 6 134 214 56 74 325 259 126 145 182 189 186 187 185 187 189
333 336 338 333 327 321 316 304 272 222 214 225 255 243 151 177 206 195 189 189 190 196 211 205 220 226 228 228 273 288 297 282 122 84 306 331 312 151 179 195 197 193 190 196 198
330 333 336 334 324 307 257 248 359 339 292 226 236 236 231 222 193 195 183 192 201 206 212 213 228 229 234 249 236 242 272 246 174 121 268 307 301 170 163 201 212 204 190 202 197
326 330 335 336 323 270 235 292 302 331 257 201 220 224 212 206 220 187 192 203 196 217 212 230 215 230 245 235 246 237 249 267 334 86 279 256 264 139 164 184 211 212 210 197 202
324 327 332 336 351 267 256 227 310 308 266 153 191 212 190 204 225 192 198 202 218 234 229 231 252 243 223 243 230 240 233 271 280 268 279 31 299 256 149 199 190 199 208 207 198
323 324 329 320 257 223 219 273 300 262 256 151 140 144 181 205 143 184 192 208 232 220 232 223 225 229 253 226 236 244 260 296 263 254 263 244 254 270 211 237 134 185 194 212 201
322 322 325 316 257 218 270 280 289 232 228 149 145 183 175 212 194 155 180 216 239 218 230 247 188 252 237 235 237 246 240 252 263 254 263 268 236 210 108 37 13 137 182 213 204
321 320 313 261 165 236 230 237 224 250 126 150 175 172 188 188 174 175 188 199 202 203 208 222 208 229 248 232 224 232 230 238 232 234 241 250 123 318 330 341 49 331 173 192 194
321 319 297 254 228 215 205 230 253 228 190 147 157 179 196 180 181 188 195 205 223 220 219 199 208 215 193 242 197 223 236 235 228 253 263 51 195 349 42 293 81 119 125 148 175
326 324 277 287 205 198 225 229 232 181 100 179 157 184 200 180 220 199 211 215 204 222 249 191 242 169 206 214 240 196 222 241 262 279 261 313 79 171 82 50 109 109 122 129 151
328 286 238 236 196 188 238 262 321 347 305 224 192 199 194 183 209 199 189 212 209 204 258 283 203 161 179 210 232 273 219 221 239 279 322 123 231 105 84 62 110 132 124 128 141
320 251 186 173 173 215 235 238 255 207 232 231 234 203 190 181 213 204 166 156 216 176 224 272 245 153 161 208 196 196 236 251 280 339 311 245 101 104 113 85 84 103 127 138 151
280 246 177 173 212 223 233 246 37 243 192 256 289 205 195 177 218 202 175 224 188 175 204 241 279 163 192 193 231 208 217 225 215 208 228 314 106 103 104 102 84 90 68 79 118
270 271 200 194 234 217 235 243 233 210 198 191 220 209 244 178 197 236 183 76 194 183 195 222 244 143 158 173 209 239 229 253 237 251 105 282 110 129 114 93 73 76 100 99 122
273 230 182 214 253 283 216 212 207 216 278 263 266 207 186 176 235 166 145 148 180 205 28 300 272 66 253 180 163 211 195 258 285 214 178 187 133 126 112 110 99 88 90 94 87
242 249 13 200 228 231 263 236 215 182 228 209 215 215 214 179 173 171 125 137 173 125 213 247 268 110 51 76 44 325 186 201 267 279 52 21 118 113 105 99 97 99 95 97 84
286 295 308 271 330 231 179 235 232 204 196 197 239 211 230 258 9 155 163 175 173 174 222 239 279 251 169 203 263 206 244 251 229 272 276 185 108 121 122 121 111 110 107 101 87
266 276 271 268 246 219 220 225 218 102 213 288 222 187 219 77 2 20 315 217 153 189 212 231 228 204 245 141 261 247 194 216 205 207 243 233 126 134 140 135 126 120 108 90 71
Wind_Speed_850mb
24 24 23 23 22 23 23 23 22 22 23 22 20 22 21 21 17 18 16 16 17 8 9 5 11 12 11 10 9 15 5 20 29 29 22 15 20 23 25 22 13 6 35 46 51
25 24 24 23 24 23 23 24 22 21 22 23 20 20 21 21 18 25 31 29 20 13 7 11 14 11 24 2 9 12 18 26 21 29 23 17 18 21 20 16 16 25 44 50 50
25 25 25 24 24 24 24 24 24 22 22 22 20 19 18 15 19 24 41 31 25 19 16 18 17 19 12 1 10 10 20 13 25 19 24 21 23 14 20 17 23 32 46 53 50
26 26 26 26 26 25 24 24 24 23 22 21 18 18 14 7 11 5 27 33 29 25 21 22 21 33 13 5 6 5 14 9 17 9 18 13 16 19 24 17 25 36 46 50 49
29 29 28 27 26 27 25 24 24 22 22 20 17 16 10 16 29 16 17 31 34 31 27 25 23 19 13 7 7 11 10 12 13 11 19 14 13 18 21 24 30 40 45 46 44
31 32 31 30 29 29 27 25 24 22 21 19 15 14 11 30 8 8 10 22 33 33 31 28 24 14 19 9 15 12 15 14 16 14 12 9 15 11 24 27 34 40 42 41 42
33 34 34 33 31 29 28 27 23 21 20 18 15 13 19 28 8 16 9 21 36 37 34 31 25 22 13 19 2 9 23 21 19 13 9 4 34 8 31 31 35 35 38 40 38
34 35 36 35 34 29 27 25 22 20 18 15 13 8 18 9 22 21 16 21 32 39 36 29 25 30 31 10 25 24 26 6 7 2 13 18 40 23 29 32 34 37 37 39 38
36 37 38 38 36 28 25 22 18 15 11 9 3 8 25 15 19 22 22 25 29 36 32 16 23 33 35 23 30 22 23 33 20 12 12 5 12 23 23 29 32 36 38 39 40
36 37 38 40 35 26 20 13 10 6 6 7 13 15 25 25 22 23 24 22 34 37 32 32 29 29 30 28 28 14 18 12 7 14 13 12 8 20 25 31 32 36 39 42 43
38 39 38 40 31 21 11 8 8 10 23 24 8 14 5 11 17 24 26 28 36 38 36 45 31 37 43 37 38 22 17 32 21 12 21 14 13 30 26 29 33 37 39 43 45
38 40 38 39 26 13 4 8 10 12 20 35 29 26 11 11 21 32 32 30 33 33 42 37 43 41 37 40 31 16 30 16 13 13 15 19 23 16 28 27 31 33 41 41 44
39 41 38 35 20 8 10 12 7 14 17 28 29 32 25 23 27 38 40 40 29 34 37 42 37 36 41 38 32 27 36 26 12 5 26 18 31 6 26 31 28 32 35 43 46
40 42 41 29 6 8 10 11 11 11 12 28 25 25 28 28 24 39 42 37 17 31 35 27 34 30 40 36 24 38 32 30 7 14 22 8 15 17 33 22 33 34 38 40 47
41 44 42 30 15 6 5 7 10 6 12 28 26 24 33 31 45 25 38 29 27 27 25 32 33 30 37 28 33 36 34 16 13 27 30 29 15 9 14 10 16 26 33 35 46
41 45 44 22 16 21 11 11 6 14 7 17 21 26 33 39 28 35 34 26 25 24 29 34 22 21 29 35 36 36 33 18 25 28 27 28 25 5 3 8 10 13 15 22 37
40 45 34 13 4 10 11 11 14 21 20 19 29 38 37 30 26 29 35 34 22 22 27 32 22 27 29 30 31 34 30 21 26 27 23 30 6 15 23 13 18 9 2 10 33
40 43 20 14 15 13 12 17 19 6 12 20 31 35 34 30 30 34 34 31 36 29 21 25 28 30 26 34 22 26 34 26 22 23 25 10 5 5 13 7 16 8 9 13 26
39 20 9 12 18 17 21 21 12 9 12 17 32 33 30 32 17 27 35 33 32 25 31 21 27 38 23 32 34 31 31 42 41 37 13 13 20 11 19 17 15 18 20 22 23
41 13 17 16 19 19 18 33 12 11 14 12 23 27 29 29 21 25 28 29 26 28 31 11 19 18 20 23 26 28 17 26 12 12 8 10 3 19 24 9 12 22 25 24 23
23 15 13 15 19 26 21 30 2 12 18 18 20 24 21 28 32 26 30 19 25 25 26 23 26 20 23 23 29 18 19 16 20 7 10 13 18 31 19 13 15 13 13 21 28
22 15 13 21 24 33 25 17 2 17 18 13 17 21 24 27 21 22 16 11 26 29 27 32 17 18 29 28 35 32 25 25 12 23 12 20 19 25 23 17 15 21 17 14 3
15 22 12 22 16 21 31 14 16 15 21 21 19 13 5 16 9 10 9 16 14 22 23 27 16 20 24 20 20 22 19 27 31 15 12 19 19 27 26 23 22 20 19 14 9
14 11 18 30 41 28 29 26 26 20 8 13 7 11 17 14 10 12 16 10 28 32 15 18 36 25 19 25 32 33 14 19 29 14 17 14 34 24 22 24 22 22 20 20 16
16 17 10 15 28 26 21 19 25 18 25 22 17 22 24 11 19 15 28 27 22 11 16 23 30 12 18 15 3 7 18 18 26 24 14 15 30 27 22 21 24 23 20 20 18
17 13 13 33 5 18 14 27 27 24 20 29 21 21 13 10 19 26 24 29 26 23 28 29 13 5 7 1 11 17 23 11 23 9 11 27 33 31 34 23 23 24 23 23 19
13 21 17 23 27 23 26 32 24 0 16 22 21 17 23 21 17 14 20 8 18 28 32 29 14 13 17 9 5 24 20 22 19 17 25 15 38 31 24 23 21 17 17 16 13
Wind_Direction_850mb
338 333 327 322 320 316 312 310 308 308 307 305 305 304 300 292 260 266 260 226 220 246 303 279 274 290 268 258 287 17 239 67 67 77 102 122 97 69 98 127 96 111 143 149 153
340 334 329 323 318 313 310 306 305 304 301 301 305 303 306 296 276 259 237 231 224 221 253 245 295 298 245 185 311 354 61 71 9 86 96 113 85 107 123 116 116 115 122 147 155
342 334 329 323 317 311 307 304 301 300 298 297 302 303 307 312 297 237 229 227 215 216 223 270 288 281 264 19 357 57 74 58 76 30 91 103 111 121 166 129 136 142 147 155 160
343 337 330 322 317 311 305 300 298 297 296 295 298 298 302 283 233 195 217 218 208 214 235 256 259 256 299 96 91 186 92 28 93 98 110 94 119 116 60 58 123 148 156 160 164
345 341 333 325 317 309 303 297 294 293 293 291 295 297 298 245 253 276 223 204 201 204 220 238 261 276 286 341 242 301 93 122 112 143 119 136 125 104 98 109 128 148 159 164 170
346 342 337 330 319 308 301 293 290 291 287 284 285 286 274 252 227 233 214 211 199 203 222 232 251 318 307 307 314 3 264 122 179 118 141 160 125 179 125 132 140 154 163 169 172
346 342 337 331 322 312 304 293 290 286 281 277 274 279 264 235 240 226 225 214 205 211 223 230 249 255 284 243 23 265 243 177 170 161 143 290 351 156 141 143 149 163 169 172 175
344 342 337 331 324 316 304 295 292 288 281 267 261 267 258 232 226 226 213 209 203 210 221 239 233 258 271 305 241 252 260 343 111 104 116 270 159 120 149 157 163 171 177 177 177
341 340 338 332 326 320 308 302 296 293 276 241 269 223 253 252 222 206 205 205 201 197 209 230 230 237 239 254 247 206 91 266 133 63 339 269 69 121 163 176 174 180 181 182 182
337 339 338 333 327 321 315 312 306 281 228 211 240 239 240 224 186 192 196 205 191 193 206 217 225 233 240 222 249 6 134 214 56 74 325 259 126 145 182 189 186 187 185 187 189
333 336 338 333 327 321 316 304 272 222 214 225 255 243 151 177 206 195 189 189 190 196 211 205 220 226 228 228 273 288 297 282 122 84 306 331 312 151 179 195 197 193 190 196 198
330 333 336 334 324 307 257 248 359 339 292 226 236 236 231 222 193 195 183 192 201 206 212 213 228 229 234 249 236 242 272 246 174 121 268 307 301 170 163 201 212 204 190 202 197
326 330 335 336 323 270 235 292 302 331 257 201 220 224 212 206 220 187 192 203 196 217 212 230 215 230 245 235 246 237 249 267 334 86 279 256 264 139 164 184 211 212 210 197 202
324 327 332 336 351 267 256 227 310 308 266 153 191 212 190 204 225 192 198 202 218 234 229 231 252 243 223 243 230 240 233 271 280 268 279 31 299 256 149 199 190 199 208 207 198
323 324 329 320 257 223 219 273 300 262 256 151 140 144 181 205 143 184 192 208 232 220 232 223 225 229 253 226 236 244 260 296 263 254 263 244 254 270 211 237 134 185 194 212 201
322 322 325 316 257 218 270 280 289 232 228 149 145 183 175 212 194 155 180 216 239 218 230 247 188 252 237 235 237 246 240 252 263 254 263 268 236 210 108 37 13 137 182 213 204
321 320 313 261 165 236 230 237 224 250 126 150 175 172 188 188 174 175 188 199 202 203 208 222 208 229 248 232 224 232 230 238 232 234 241 250 123 318 330 341 49 331 173 192 194
321 319 297 254 228 215 205 230 253 228 190 147 157 179 196 180 181 188 195 205 223 220 219 199 208 215 193 242 197 223 236 235 228 253 263 51 195 349 42 293 81 119 125 148 175
326 324 277 287 205 198 225 229 232 181 100 179 157 184 200 180 220 199 211 215 204 222 249 191 242 169 206 214 240 196 222 241 262 279 261 313 79 171 82 50 109 109 122 129 151
328 286 238 236 196 188 238 262 321 347 305 224 192 199 194 183 209 199 189 212 209 204 258 283 203 161 179 210 232 273 219 221 239 279 322 123 231 105 84 62 110 132 124 128 141
320 251 186 173 173 215 235 238 255 207 232 231 234 203 190 181 213 204 166 156 216 176 224 272 245 153 161 208 196 196 236 251 280 339 311 245 101 104 113 85 84 103 127 138 151
280 246 177 173 212 223 233 246 37 243 192 256 289 205 195 177 218 202 175 224 188 175 204 241 279 163 192 193 231 208 217 225 215 208 228 314 106 103 104 102 84 90 68 79 118
270 271 200 194 234 217 235 243 233 210 198 191 220 209 244 178 197 236 183 76 194 183 195 222 244 143 158 173 209 239 229 253 237 251 105 282 110 129 114 93 73 76 100 99 122
273 230 182 214 253 283 216 212 207 216 278 263 266 207 186 176 235 166 145 148 180 205 28 300 272 66 253 180 163 211 195 258 285 214 178 187 133 126 112 110 99 88 90 94 87
242 249 13 200 228 231 263 236 215 182 228 209 215 215 214 179 173 171 125 137 173 125 213 247 268 110 51 76 44 325 186 201 267 279 52 21 118 113 105 99 97 99 95 97 84
286 295 308 271 330 231 179 235 232 204 196 197 239 211 230 258 9 155 163 175 173 174 222 239 279 251 169 203 263 206 244 251 229 272 276 185 108 121 122 121 111 110 107 101 87
266 276 271 268 246 219 220 225 218 102 213 288 222 187 219 77 2 20 315 217 153 189 212 231 228 204 245 141 261 247 194 216 205 207 243 233 126 134 140 135 126 120 108 90 71